Location: Villingen
(48.0639°N, 8.4609°E)
Time: 21:45:35
(UTC+02:00)

ISS - Visible Passes

Search period start: 25 September 2020 00:00
Search period end: 05 October 2020 00:00
Orbit: 419 x 420 km, 51.6° (Epoch: 26 September)

Date Brightness Start Highest point End Pass type
(mag) Time Alt. Az. Time Alt. Az. Time Alt. Az.
25 Sep -2.9 20:57:56 10° WNW 21:01:12 43° N 21:02:08 33° NE visible
25 Sep -0.3 22:34:56 10° WNW 22:35:06 11° WNW 22:35:06 11° WNW visible
26 Sep -2.9 20:10:27 10° W 20:13:43 45° N 20:16:31 13° ENE visible
26 Sep -1.8 21:47:33 10° WNW 21:49:28 30° NW 21:49:28 30° NW visible
27 Sep -3.2 21:00:07 10° WNW 21:03:25 47° N 21:03:50 44° NE visible
28 Sep -3.0 20:12:39 10° WNW 20:15:55 44° N 20:18:11 17° ENE visible
28 Sep -1.5 21:49:34 10° WNW 21:51:09 25° WNW 21:51:09 25° WNW visible
29 Sep -3.7 21:02:08 10° WNW 21:05:30 69° NNE 21:05:30 69° NNE visible
30 Sep -3.4 20:14:42 10° WNW 20:18:02 55° NNE 20:19:53 23° E visible
30 Sep -1.1 21:51:36 10° WNW 21:52:51 20° W 21:52:51 20° W visible
01 Oct -3.5 21:04:06 10° WNW 21:07:15 61° SW 21:07:15 61° SW visible
02 Oct -3.8 20:16:37 10° WNW 20:20:01 88° SSW 20:21:42 27° ESE visible
02 Oct -0.7 21:54:00 10° W 21:54:40 13° W 21:54:40 13° W visible
03 Oct -3.7 19:29:09 10° WNW 19:32:32 70° NNE 19:35:54 10° ESE visible
03 Oct -2.2 21:06:12 10° W 21:09:10 28° SW 21:09:11 28° SW visible
04 Oct -2.8 20:18:35 10° WNW 20:21:48 42° SSW 20:23:45 20° SSE visible
